Location: Unspecified
(0.0000°N, 0.0000°E)
Time: 05:20:33
(UTC+00:00)

BlueWalker 3 - Pass Details

Date: 20 August 2024
Orbit: 475 x 487 km, 53.2° (Epoch: 14 September)

Event Time Altitude Azimuth Distance (km) Brightness Sun altitude
Rises 19:21:46 0° 226° (SW) 2,519 6.0 -19.2°
Reaches altitude 10° 19:24:01 10° 234° (SW) 1,641 5.1 -19.7°
Maximum altitude 19:27:29 39° 304° (NW) 725 3.2 -20.6°
Drops below altitude 10° 19:30:58 10° 14° (NNE) 1,641 4.5 -21.4°
Enters shadow 19:31:24 - 16° (NNE) 1,803 4.7 -21.5°
